Location: Elmsmere
(40.9284°N, 73.8207°W)
Time: 05:49:44
(UTC+00:00)

ATLAS 2AS CENTAUR R/B - Pass Details

Date: 29 October 2020
Orbit: 939 x 1273 km, 63.7° (Epoch: 23 November)

Event Time Altitude Azimuth Distance (km) Brightness Sun altitude
Rises 23:37:39 0° 328° (NNW) 4,150 6.2 -20.0°
Reaches altitude 10° 23:40:50 10° 337° (NNW) 3,139 5.4 -20.6°
Maximum altitude 23:47:34 35° 41° (NE) 1,767 3.5 -21.9°
Enters shadow 23:48:39 33° 58° (ENE) 1,798 3.4 -22.1°
